Location: Caltech
(34.1382°N, 118.1253°W)
Time: 13:05:40
(UTC-07:00)

NOAA 19 - Visible Passes

Search period start: 25 July 2016 00:00
Search period end: 04 August 2016 00:00
Orbit: 841 x 863 km, 99.0° (Epoch: 25 July)

Date Brightness Start Highest point End Pass type
(mag) Time Alt. Az. Time Alt. Az. Time Alt. Az.
25 Jul 5.4 03:42:02 10° NNE 03:47:29 67° ESE 03:49:40 36° S visible
25 Jul 7.1 05:24:50 10° NNW 05:27:32 14° WNW 05:30:14 10° W visible
26 Jul 5.8 03:30:45 10° NNE 03:36:05 52° E 03:38:05 35° SSE visible
26 Jul 6.8 05:12:44 10° NNW 05:16:18 18° WNW 05:19:51 10° WSW visible
27 Jul 6.2 03:19:32 10° NNE 03:24:39 40° E 03:26:30 31° SE visible
27 Jul 6.5 05:00:52 10° NNW 05:05:02 23° WNW 05:08:31 13° WSW visible
28 Jul 6.6 03:08:24 10° NE 03:13:13 31° E 03:14:54 26° SE visible
28 Jul 6.2 04:49:08 10° N 04:53:45 29° WNW 04:56:56 17° WSW visible
29 Jul 6.9 02:57:23 10° NE 03:01:45 24° E 03:03:19 21° ESE visible
29 Jul 5.9 04:37:29 10° N 04:42:27 37° WNW 04:45:20 22° WSW visible
30 Jul 7.2 02:46:32 10° NE 02:50:16 19° E 02:51:43 17° ESE visible
30 Jul 5.6 04:25:55 10° N 04:31:07 47° WNW 04:33:45 27° SW visible
31 Jul 7.5 02:35:58 10° ENE 02:38:46 14° E 02:40:08 13° ESE visible
31 Jul 5.3 04:14:24 10° N 04:19:47 61° WNW 04:22:09 33° SW visible
01 Aug 7.7 02:26:28 10° E 02:27:16 10° E 02:28:02 10° E visible
01 Aug 5.1 04:02:57 10° N 04:08:26 78° WNW 04:10:33 39° SSW visible
02 Aug 5.2 03:51:33 10° NNE 03:57:03 82° ESE 03:58:57 43° S visible
02 Aug 7.2 05:35:18 10° NW 05:36:59 11° WNW 05:38:40 10° W visible
03 Aug 5.5 03:40:13 10° NNE 03:45:39 64° ESE 03:47:22 43° SSE visible
03 Aug 7.0 05:22:49 10° NNW 05:25:46 15° WNW 05:28:43 10° W visible
